• In Austria
  • List of Countries
  • For 7 days
  • Water Temperature
  • Satellite Maps
  • Weather Map
  • News
  • Weather Widgets
  • user-avatar
    Login

    Hourly Weather Shkoder

    Today, 19 July, Thursday

    Time Temperature Precipitation Wind Pressure Humidity
    00:00 +20°C° 0 mm 2 mps 738 mmHg 73%
    01:00 +19°C° 0 mm 2 mps 738 mmHg 72%
    02:00 +19°C° 0 mm 2 mps 738 mmHg 73%
    03:00 +19°C° 0 mm 2 mps 737 mmHg 73%
    04:00 +19°C° 0 mm 2 mps 737 mmHg 74%
    05:00 +21°C° 0 mm 2 mps 737 mmHg 70%
    06:00 +23°C° 0 mm 1 mps 737 mmHg 66%
    07:00 +25°C° 0 mm 1 mps 737 mmHg 62%
    08:00 +26°C° 0 mm 1 mps 737 mmHg 59%
    09:00 +27°C° 0 mm 2 mps 738 mmHg 55%
    10:00 +28°C° 0 mm 2 mps 738 mmHg 52%
    11:00 +29°C° 0.1 mm 2 mps 738 mmHg 52%
    12:00 +29°C° 0.1 mm 2 mps 738 mmHg 53%
    13:00 +29°C° 0.1 mm 3 mps 738 mmHg 54%
    14:00 +29°C° 0.1 mm 3 mps 738 mmHg 54%
    15:00 +29°C° 0.1 mm 3 mps 738 mmHg 54%
    16:00 +29°C° 0.1 mm 3 mps 738 mmHg 54%
    17:00 +28°C° 0.3 mm 3 mps 738 mmHg 60%
    18:00 +26°C° 0.3 mm 3 mps 738 mmHg 65%
    19:00 +25°C° 0.3 mm 3 mps 738 mmHg 71%
    20:00 +24°C° 0.2 mm 3 mps 738 mmHg 73%
    21:00 +22°C° 0.2 mm 3 mps 738 mmHg 74%
    22:00 +21°C° 0.2 mm 3 mps 739 mmHg 76%
    23:00 +20°C° 0.1 mm 3 mps 739 mmHg 77%

    Tomorrow, 20 July, Friday

    Time Temperature Precipitation Wind Pressure Humidity
    00:00 +20°C° 0.1 mm 3 mps 738 mmHg 77%
    01:00 +20°C° 0.1 mm 3 mps 738 mmHg 78%
    02:00 +20°C° 0.1 mm 3 mps 738 mmHg 78%
    03:00 +19°C° 0.1 mm 2 mps 738 mmHg 78%
    04:00 +19°C° 0.1 mm 2 mps 738 mmHg 78%
    05:00 +21°C° 0 mm 2 mps 738 mmHg 74%
    06:00 +24°C° 0 mm 2 mps 738 mmHg 70%
    07:00 +25°C° 0 mm 2 mps 738 mmHg 66%
    08:00 +27°C° 0 mm 2 mps 739 mmHg 59%
    09:00 +28°C° 0 mm 2 mps 739 mmHg 52%
    10:00 +30°C° 0 mm 2 mps 739 mmHg 44%
    11:00 +31°C° 0 mm 2 mps 739 mmHg 43%
    12:00 +31°C° 0 mm 3 mps 738 mmHg 41%
    13:00 +33°C° 0 mm 3 mps 738 mmHg 39%
    14:00 +33°C° 0 mm 3 mps 738 mmHg 40%
    15:00 +33°C° 0 mm 3 mps 738 mmHg 41%
    16:00 +33°C° 0 mm 3 mps 738 mmHg 42%
    17:00 +29°C° 0 mm 3 mps 738 mmHg 49%
    18:00 +27°C° 0 mm 2 mps 738 mmHg 56%
    19:00 +25°C° 0 mm 2 mps 738 mmHg 62%
    20:00 +24°C° 0 mm 2 mps 738 mmHg 63%
    21:00 +23°C° 0 mm 2 mps 739 mmHg 63%
    22:00 +23°C° 0 mm 2 mps 739 mmHg 64%
    23:00 +21°C° 0 mm 2 mps 739 mmHg 63%

    Day after tomorrow, 21 July, Saturday

    Time Temperature Precipitation Wind Pressure Humidity
    00:00 +21°C° 0 mm 2 mps 739 mmHg 63%
    01:00 +21°C° 0 mm 2 mps 739 mmHg 63%
    02:00 +20°C° 0 mm 2 mps 739 mmHg 62%
    03:00 +20°C° 0 mm 2 mps 739 mmHg 61%
    04:00 +20°C° 0 mm 2 mps 738 mmHg 60%
    05:00 +23°C° 0 mm 2 mps 738 mmHg 57%
    06:00 +25°C° 0 mm 1 mps 739 mmHg 53%
    07:00 +27°C° 0 mm 1 mps 739 mmHg 50%
    08:00 +28°C° 0 mm 1 mps 739 mmHg 47%
    09:00 +30°C° 0 mm 1 mps 739 mmHg 43%
    10:00 +31°C° 0 mm 2 mps 739 mmHg 39%
    11:00 +32°C° 0 mm 2 mps 738 mmHg 39%
    12:00 +32°C° 0 mm 2 mps 738 mmHg 39%
    13:00 +34°C° 0 mm 3 mps 738 mmHg 39%
    14:00 +34°C° 0 mm 3 mps 738 mmHg 41%
    15:00 +33°C° 0 mm 3 mps 738 mmHg 43%
    16:00 +33°C° 0 mm 3 mps 738 mmHg 45%
    17:00 +30°C° 0.1 mm 2 mps 738 mmHg 52%
    18:00 +28°C° 0.1 mm 1 mps 738 mmHg 59%
    19:00 +26°C° 0.1 mm 1 mps 738 mmHg 66%
    20:00 +25°C° 0 mm 1 mps 738 mmHg 67%
    21:00 +24°C° 0 mm 1 mps 738 mmHg 69%
    22:00 +23°C° 0 mm 1 mps 738 mmHg 70%
    23:00 +23°C° 0 mm 2 mps 738 mmHg 69%

    22 July, Sunday

    Time Temperature Precipitation Wind Pressure Humidity
    00:00 +23°C° 0 mm 2 mps 738 mmHg 68%
    01:00 +21°C° 0 mm 2 mps 738 mmHg 67%
    02:00 +21°C° 0 mm 2 mps 738 mmHg 65%
    03:00 +21°C° 0 mm 2 mps 738 mmHg 63%
    04:00 +21°C° 0 mm 2 mps 737 mmHg 61%
    05:00 +24°C° 0 mm 2 mps 737 mmHg 58%
    06:00 +26°C° 0 mm 2 mps 737 mmHg 55%
    07:00 +28°C° 0 mm 2 mps 737 mmHg 52%
    08:00 +30°C° 0 mm 2 mps 737 mmHg 48%
    09:00 +32°C° 0 mm 2 mps 736 mmHg 44%
    10:00 +34°C° 0 mm 2 mps 736 mmHg 39%
    11:00 +35°C° 0.1 mm 3 mps 736 mmHg 39%
    12:00 +35°C° 0.1 mm 3 mps 735 mmHg 38%
    13:00 +36°C° 0.1 mm 4 mps 735 mmHg 38%
    14:00 +35°C° 0 mm 4 mps 734 mmHg 40%
    15:00 +34°C° 0 mm 4 mps 734 mmHg 42%
    16:00 +34°C° 0 mm 4 mps 734 mmHg 45%
    17:00 +31°C° 0 mm 3 mps 733 mmHg 51%
    18:00 +29°C° 0 mm 3 mps 733 mmHg 58%
    19:00 +26°C° 0 mm 3 mps 733 mmHg 65%
    20:00 +26°C° 0.1 mm 3 mps 733 mmHg 66%
    21:00 +25°C° 0.1 mm 3 mps 733 mmHg 68%
    22:00 +24°C° 0.1 mm 3 mps 733 mmHg 70%
    23:00 +23°C° 2 mm 2 mps 733 mmHg 75%

    23 July, Monday

    Time Temperature Precipitation Wind Pressure Humidity
    00:00 +23°C° 2 mm 2 mps 733 mmHg 80%
    01:00 +21°C° 2 mm 2 mps 733 mmHg 85%
    02:00 +21°C° 2.7 mm 2 mps 733 mmHg 87%
    03:00 +20°C° 2.7 mm 2 mps 733 mmHg 88%
    04:00 +20°C° 2.7 mm 2 mps 733 mmHg 90%
    05:00 +21°C° 0.8 mm 2 mps 733 mmHg 87%
    06:00 +23°C° 0.8 mm 2 mps 733 mmHg 84%
    07:00 +25°C° 0.8 mm 2 mps 733 mmHg 81%
    08:00 +26°C° 0.5 mm 2 mps 733 mmHg 76%
    09:00 +27°C° 0.5 mm 2 mps 733 mmHg 70%
    10:00 +28°C° 0.5 mm 3 mps 733 mmHg 64%
    11:00 +28°C° 0.9 mm 3 mps 733 mmHg 63%
    12:00 +28°C° 0.9 mm 2 mps 733 mmHg 63%
    13:00 +28°C° 0.9 mm 2 mps 733 mmHg 62%
    14:00 +28°C° 0.7 mm 2 mps 733 mmHg 63%
    15:00 +28°C° 0.7 mm 2 mps 733 mmHg 63%
    16:00 +28°C° 0.7 mm 2 mps 733 mmHg 64%
    17:00 +26°C° 0.4 mm 2 mps 733 mmHg 68%
    18:00 +25°C° 0.4 mm 2 mps 733 mmHg 73%
    19:00 +24°C° 0.4 mm 1 mps 733 mmHg 77%
    20:00 +23°C° 0 mm 2 mps 733 mmHg 79%
    21:00 +21°C° 0 mm 2 mps 734 mmHg 82%
    22:00 +21°C° 0 mm 2 mps 734 mmHg 84%
    23:00 +21°C° 0 mm 2 mps 734 mmHg 84%

    24 July, Tuesday

    Time Temperature Precipitation Wind Pressure Humidity
    00:00 +20°C° 0 mm 3 mps 734 mmHg 85%
    01:00 +20°C° 0 mm 3 mps 733 mmHg 85%
    02:00 +20°C° 0 mm 3 mps 733 mmHg 85%
    03:00 +20°C° 0 mm 3 mps 733 mmHg 85%
    04:00 +20°C° 0 mm 3 mps 733 mmHg 85%
    05:00 +21°C° 0.1 mm 3 mps 734 mmHg 81%
    06:00 +22°C° 0.1 mm 3 mps 734 mmHg 78%
    07:00 +25°C° 0.1 mm 3 mps 734 mmHg 74%
    08:00 +26°C° 0 mm 3 mps 734 mmHg 69%
    09:00 +28°C° 0 mm 4 mps 734 mmHg 63%
    10:00 +29°C° 0 mm 4 mps 734 mmHg 58%
    11:00 +30°C° 0.1 mm 4 mps 734 mmHg 57%
    12:00 +30°C° 0.1 mm 4 mps 734 mmHg 56%
    13:00 +32°C° 0.1 mm 4 mps 734 mmHg 54%
    14:00 +32°C° 0.2 mm 4 mps 734 mmHg 55%
    15:00 +32°C° 0.2 mm 4 mps 734 mmHg 55%
    16:00 +30°C° 0.2 mm 4 mps 734 mmHg 56%
    17:00 +29°C° 0 mm 4 mps 735 mmHg 61%
    18:00 +27°C° 0 mm 3 mps 735 mmHg 66%
    19:00 +26°C° 0 mm 3 mps 735 mmHg 71%
    20:00 +25°C° 0 mm 3 mps 735 mmHg 74%
    21:00 +24°C° 0 mm 3 mps 736 mmHg 78%
    22:00 +22°C° 0 mm 3 mps 736 mmHg 81%
    23:00 +21°C° 0 mm 3 mps 736 mmHg 82%
    Show more